Overview Statistics Trail Chart Weather Telemetry Raw packets
 

This is the latest recevied weather packets stored in our database for station/object N3LF. If no packets are shown the sender has not sent any weather packets the latest 10 day(s).

<< 24 25 26 27 28 29 30 >>
Time Temp. Humidity Pressure Rain* Wind** Luminosity Snow
1788456034 36.11° C 50% 1019.2 hPa 0 mm - 656 W/m² -
1788455729 36.67° C 50% 1019.3 hPa 0 mm - 645 W/m² -
1788455424 37.78° C 48% 1019.4 hPa 0 mm - 632 W/m² -
1788455123 36.67° C 48% 1019.3 hPa 0 mm - 643 W/m² -
1788454819 36.11° C 51% 1019.5 hPa 0 mm - 637 W/m² -
1788454516 36.67° C 51% 1019.5 hPa 0 mm - 634 W/m² -
1788454212 36.67° C 53% 1019.6 hPa 0 mm - 630 W/m² -
1788453912 36.11° C 53% 1019.4 hPa 0 mm - 622 W/m² -
1788453607 37.22° C 50% 1019.4 hPa 0 mm - 620 W/m² -
1788453302 36.11° C 50% 1019.7 hPa 0 mm - 614 W/m² -
1788452998 36.11° C 50% 1019.8 hPa 0 mm - 608 W/m² -
1788452695 36.11° C 52% 1019.9 hPa 0 mm - 601 W/m² -
1788452390 35° C 52% 1020 hPa 0 mm - 595 W/m² -
1788452085 35.56° C 57% 1019.8 hPa 0 mm - 587 W/m² -
1788451802 36.11° C 57% 1019.9 hPa 0 mm - 581 W/m² -
1788451480 35.56° C 59% 1019.9 hPa 0 mm - 574 W/m² -
1788451179 35° C 61% 1019.9 hPa 0 mm - 564 W/m² -
1788450879 35° C 62% 1019.9 hPa 0 mm - 557 W/m² -
1788450576 35° C 64% 1020 hPa 0 mm - 549 W/m² -
1788450271 35° C 66% 1019.8 hPa 0 mm - 540 W/m² -
1788449966 33.33° C 69% 1020.1 hPa 0 mm - 531 W/m² -
1788449662 33.33° C 70% 1020.1 hPa 0 mm - 522 W/m² -
1788449358 32.78° C 70% 1020.2 hPa 0 mm - 512 W/m² -
1788449054 32.78° C 70% 1019.9 hPa 0 mm - 502 W/m² -
1788448754 32.78° C 71% 1020.1 hPa 0 mm - 491 W/m² -

* Rain latest hour (hover to see other rain measurements)
** Current wind speed in m/s (hover to see current wind gust speed)